QPF
0.00 0.00 0.00 0.00 0.00 0.03 0.06 0.03 0.00 0.00 0.00 0.02 0.00 0.00 0.00 0.00 0.00 0.00 0.00 0.00 0.00 0.00 0.00 0.00 0.00 0.00 0.00 0.00 0.00 0.00 0.00 0.00 0.00 0.00 0.00 0.00 0.00 0.00 0.00 0.00 0.00 0.00 0.00 0.00
0.00 0.00 0.01 0.01 0.00 0.03 0.04 0.02 0.00 0.00 0.00 0.00 0.00 0.00 0.00 0.00 0.00 0.00 0.00 0.00 0.00 0.00 0.00 0.00 0.00 0.00 0.00 0.00 0.00 0.00 0.00 0.00 0.00 0.00 0.00 0.00 0.00 0.00 0.00 0.00 0.00 0.00 0.00 0.00
0.01 0.01 0.01 0.01 0.01 0.03 0.05 0.01 0.00 0.01 0.00 0.00 0.00 0.00 0.00 0.00 0.00 0.00 0.00 0.00 0.00 0.00 0.00 0.00 0.00 0.00 0.00 0.00 0.00 0.00 0.00 0.00 0.00 0.00 0.00 0.00 0.00 0.00 0.00 0.00 0.00 0.00 0.00 0.00
0.01 0.01 0.01 0.01 0.01 0.03 0.05 0.01 0.00 0.00 0.00 0.00 0.00 0.00 0.00 0.00 0.00 0.00 0.00 0.00 0.00 0.00 0.00 0.00 0.00 0.00 0.00 0.00 0.00 0.00 0.01 0.00 0.00 0.00 0.00 0.00 0.00 0.00 0.00 0.00 0.00 0.00 0.00 0.00
0.01 0.01 0.01 0.01 0.01 0.04 0.03 0.00 0.00 0.00 0.00 0.00 0.00 0.00 0.00 0.00 0.00 0.00 0.00 0.00 0.00 0.00 0.00 0.00 0.00 0.00 0.00 0.00 0.00 0.00 0.01 0.01 0.00 0.00 0.00 0.00 0.00 0.00 0.00 0.00 0.00 0.00 0.00 0.00
0.02 0.03 0.03 0.02 0.02 0.04 0.02 0.00 0.00 0.00 0.00 0.00 0.00 0.00 0.00 0.00 0.00 0.00 0.00 0.00 0.00 0.00 0.00 0.00 0.00 0.00 0.00 0.00 0.00 0.00 0.00 0.00 0.00 0.00 0.00 0.00 0.00 0.00 0.00 0.00 0.00 0.00 0.00 0.00
0.01 0.01 0.01 0.02 0.02 0.03 0.01 0.00 0.00 0.00 0.00 0.00 0.00 0.00 0.00 0.00 0.00 0.00 0.00 0.00 0.00 0.00 0.00 0.00 0.00 0.00 0.01 0.01 0.01 0.00 0.00 0.00 0.00 0.00 0.00 0.00 0.00 0.00 0.00 0.00 0.00 0.00 0.00 0.00
0.00 0.00 0.00 0.00 0.00 0.02 0.02 0.00 0.00 0.00 0.00 0.00 0.00 0.00 0.00 0.00 0.00 0.00 0.00 0.00 0.00 0.00 0.00 0.00 0.00 0.00 0.00 0.00 0.02 0.01 0.01 0.00 0.00 0.00 0.00 0.00 0.00 0.00 0.00 0.00 0.00 0.00 0.00 0.00
0.01 0.01 0.01 0.01 0.00 0.00 0.03 0.01 0.00 0.01 0.00 0.00 0.00 0.00 0.00 0.00 0.00 0.00 0.00 0.00 0.00 0.00 0.00 0.00 0.00 0.00 0.00 0.00 0.00 0.01 0.00 0.00 0.00 0.00 0.01 0.00 0.00 0.00 0.00 0.00 0.00 0.00 0.00 0.00
0.01 0.01 0.02 0.02 0.01 0.00 0.03 0.01 0.00 0.00 0.00 0.00 0.00 0.00 0.00 0.00 0.00 0.00 0.00 0.00 0.00 0.00 0.00 0.00 0.00 0.00 0.00 0.00 0.00 0.00 0.00 0.00 0.00 0.00 0.00 0.00 0.00 0.00 0.00 0.00 0.00 0.00 0.00 0.00
0.01 0.02 0.01 0.02 0.02 0.02 0.05 0.01 0.00 0.00 0.00 0.00 0.00 0.00 0.00 0.00 0.00 0.00 0.00 0.00 0.00 0.00 0.00 0.00 0.00 0.00 0.00 0.00 0.00 0.00 0.00 0.00 0.00 0.00 0.01 0.01 0.01 0.00 0.00 0.00 0.00 0.00 0.00 0.00
0.01 0.01 0.02 0.02 0.02 0.02 0.03 0.01 0.00 0.01 0.01 0.01 0.01 0.00 0.00 0.00 0.00 0.00 0.00 0.00 0.00 0.00 0.01 0.00 0.00 0.00 0.00 0.00 0.00 0.01 0.00 0.00 0.00 0.00 0.00 0.01 0.01 0.01 0.00 0.00 0.00 0.00 0.01 0.00
0.01 0.01 0.02 0.02 0.02 0.03 0.03 0.01 0.00 0.00 0.00 0.00 0.01 0.01 0.01 0.01 0.01 0.00 0.00 0.00 0.01 0.02 0.01 0.02 0.01 0.00 0.00 0.00 0.00 0.00 0.00 0.00 0.00 0.00 0.00 0.00 0.00 0.00 0.00 0.00 0.00 0.00 0.00 0.00
0.02 0.02 0.02 0.02 0.03 0.03 0.03 0.01 0.00 0.01 0.02 0.01 0.00 0.00 0.01 0.01 0.01 0.02 0.00 0.00 0.02 0.03 0.02 0.02 0.02 0.01 0.01 0.00 0.00 0.01 0.01 0.01 0.00 0.00 0.00 0.00 0.00 0.00 0.00 0.00 0.00 0.00 0.00 0.01
0.01 0.02 0.03 0.03 0.03 0.04 0.02 0.01 0.00 0.02 0.04 0.01 0.02 0.01 0.01 0.01 0.01 0.02 0.03 0.02 0.03 0.07 0.02 0.01 0.00 0.00 0.01 0.02 0.02 0.00 0.01 0.02 0.02 0.00 0.00 0.00 0.00 0.00 0.00 0.00 0.00 0.00 0.00 0.01
0.02 0.03 0.03 0.03 0.03 0.03 0.02 0.02 0.02 0.01 0.05 0.06 0.03 0.01 0.02 0.02 0.02 0.03 0.02 0.03 0.04 0.04 0.02 0.00 0.00 0.00 0.01 0.02 0.02 0.03 0.04 0.03 0.01 0.00 0.00 0.00 0.00 0.00 0.00 0.00 0.00 0.00 0.00 0.00
0.01 0.01 0.02 0.02 0.02 0.01 0.01 0.00 0.00 0.01 0.01 0.02 0.01 0.01 0.01 0.01 0.02 0.04 0.04 0.04 0.05 0.02 0.01 0.01 0.00 0.02 0.05 0.04 0.02 0.01 0.02 0.01 0.00 0.00 0.00 0.00 0.00 0.00 0.00 0.00 0.00 0.00 0.00 0.00
0.01 0.01 0.01 0.01 0.02 0.02 0.00 0.00 0.00 0.00 0.00 0.00 0.00 0.00 0.00 0.00 0.00 0.00 0.02 0.01 0.03 0.01 0.00 0.00 0.01 0.01 0.02 0.02 0.00 0.00 0.00 0.00 0.00 0.00 0.00 0.00 0.00 0.00 0.00 0.00 0.00 0.00 0.00 0.00
0.02 0.01 0.01 0.01 0.01 0.00 0.00 0.00 0.00 0.00 0.00 0.00 0.00 0.00 0.00 0.00 0.01 0.00 0.00 0.02 0.00 0.01 0.00 0.01 0.03 0.01 0.00 0.00 0.00 0.00 0.00 0.00 0.00 0.00 0.00 0.00 0.00 0.00 0.00 0.00 0.00 0.00 0.00 0.00
0.01 0.00 0.00 0.00 0.00 0.00 0.00 0.00 0.00 0.00 0.00 0.00 0.00 0.00 0.00 0.00 0.00 0.01 0.02 0.01 0.01 0.00 0.00 0.01 0.01 0.00 0.00 0.00 0.00 0.00 0.00 0.00 0.00 0.00 0.00 0.00 0.00 0.00 0.00 0.00 0.00 0.00 0.00 0.00
0.00 0.00 0.00 0.00 0.00 0.00 0.00 0.00 0.00 0.00 0.00 0.00 0.00 0.00 0.00 0.00 0.00 0.02 0.02 0.01 0.01 0.00 0.01 0.01 0.00 0.00 0.00 0.00 0.00 0.00 0.00 0.00 0.00 0.00 0.00 0.00 0.00 0.00 0.00 0.00 0.00 0.00 0.00 0.00
0.00 0.00 0.00 0.00 0.00 0.00 0.00 0.00 0.00 0.00 0.00 0.00 0.00 0.00 0.00 0.00 0.00 0.02 0.01 0.01 0.00 0.00 0.01 0.00 0.00 0.00 0.00 0.00 0.00 0.00 0.00 0.00 0.00 0.00 0.00 0.00 0.00 0.00 0.00 0.00 0.00 0.00 0.00 0.00
0.00 0.00 0.00 0.00 0.00 0.00 0.00 0.00 0.00 0.00 0.00 0.00 0.00 0.00 0.00 0.00 0.00 0.01 0.01 0.01 0.00 0.00 0.00 0.00 0.00 0.00 0.00 0.00 0.00 0.00 0.00 0.00 0.00 0.00 0.00 0.00 0.00 0.00 0.00 0.00 0.00 0.00 0.00 0.00
0.00 0.00 0.00 0.00 0.00 0.00 0.00 0.00 0.00 0.00 0.00 0.00 0.00 0.00 0.00 0.00 0.00 0.01 0.00 0.00 0.00 0.00 0.00 0.00 0.00 0.00 0.00 0.00 0.00 0.00 0.00 0.00 0.00 0.00 0.00 0.00 0.00 0.00 0.00 0.00 0.00 0.00 0.00 0.00
0.00 0.00 0.00 0.00 0.00 0.00 0.00 0.00 0.00 0.00 0.00 0.00 0.00 0.00 0.00 0.00 0.00 0.00 0.00 0.00 0.00 0.00 0.00 0.00 0.00 0.00 0.00 0.00 0.00 0.00 0.00 0.00 0.00 0.00 0.00 0.00 0.00 0.00 0.00 0.00 0.00 0.00 0.00 0.00
0.00 0.00 0.00 0.00 0.00 0.00 0.00 0.00 0.00 0.00 0.00 0.00 0.00 0.00 0.00 0.00 0.00 0.00 0.00 0.00 0.00 0.00 0.00 0.00 0.00 0.00 0.00 0.00 0.00 0.00 0.00 0.00 0.00 0.00 0.00 0.00 0.00 0.00 0.00 0.00 0.00 0.00 0.00 0.00
0.00 0.00 0.00 0.00 0.00 0.00 0.00 0.00 0.00 0.00 0.00 0.00 0.00 0.00 0.00 0.00 0.00 0.00 0.00 0.00 0.00 0.00 0.00 0.00 0.00 0.00 0.00 0.00 0.00 0.00 0.00 0.00 0.00 0.00 0.00 0.00 0.00 0.00 0.00 0.00 0.00 0.00 0.00 0.00
MSLP
1012.71 1012.86 1013.04 1013.23 1013.44 1013.78 1014.28 1014.13 1014.06 1014.20 1015.03 1016.18 1015.07 1012.80 1012.31 1012.01 1011.73 1011.33 1011.09 1010.13 1009.52 1009.18 1009.15 1008.50 1007.85 1006.95 1006.68 1005.98 1005.79 1005.97 1006.29 1005.23 1004.82 1003.52 1002.96 1002.71 1002.61 1002.79 1003.62 1005.09 1006.57 1007.01 1006.68 1004.93
1011.41 1011.55 1011.76 1012.08 1012.47 1012.94 1013.30 1013.22 1013.62 1013.71 1013.58 1013.41 1012.31 1012.63 1012.66 1012.62 1012.03 1011.57 1011.22 1010.49 1009.79 1009.56 1009.44 1009.21 1008.01 1007.27 1006.77 1006.46 1006.66 1007.43 1007.37 1006.28 1005.86 1004.36 1003.28 1002.17 1002.41 1002.43 1002.79 1003.57 1005.00 1005.58 1005.99 1004.61
1009.96 1010.11 1010.37 1010.75 1011.25 1011.82 1012.73 1012.70 1012.90 1012.76 1012.41 1010.83 1011.60 1012.56 1012.28 1012.15 1012.00 1011.99 1011.75 1010.96 1010.38 1009.80 1009.65 1009.40 1008.42 1007.67 1007.15 1007.08 1007.49 1007.63 1007.49 1008.16 1006.93 1005.64 1004.40 1003.23 1002.32 1001.92 1002.16 1002.83 1003.89 1004.47 1004.03 1003.66
1008.41 1008.61 1008.89 1009.31 1009.83 1010.60 1011.85 1011.39 1010.90 1010.13 1009.61 1010.27 1011.18 1011.56 1011.13 1011.22 1011.22 1011.50 1011.12 1010.71 1010.77 1010.55 1009.60 1009.02 1008.23 1008.45 1008.09 1007.56 1007.48 1007.65 1008.09 1009.40 1008.55 1006.63 1005.15 1003.58 1002.22 1001.64 1001.44 1001.61 1002.21 1002.76 1002.86 1002.47
1006.71 1006.90 1007.22 1007.70 1008.33 1009.32 1010.05 1009.99 1009.67 1009.50 1009.19 1009.84 1010.89 1010.78 1008.78 1009.46 1010.76 1010.72 1010.42 1010.29 1009.82 1009.47 1008.97 1009.57 1008.78 1008.60 1008.67 1008.50 1008.32 1008.68 1009.55 1009.63 1009.57 1007.21 1005.28 1003.80 1002.13 1001.00 1000.65 1000.37 1000.91 1001.23 1001.35 1001.09
1004.95 1005.18 1005.58 1006.09 1006.74 1007.83 1007.70 1008.33 1008.82 1008.69 1008.42 1009.05 1009.56 1006.26 1005.32 1009.40 1010.67 1009.75 1009.80 1009.58 1009.67 1009.13 1009.06 1008.81 1008.55 1008.36 1008.30 1008.28 1008.58 1009.13 1009.67 1010.64 1010.25 1008.88 1006.95 1004.49 1002.24 999.13 999.76 999.90 999.88 999.94 1000.02 1000.19
1003.27 1003.61 1004.05 1004.56 1005.12 1005.87 1006.39 1006.80 1007.50 1008.20 1007.29 1007.69 1004.64 1006.89 1008.70 1008.77 1009.24 1009.47 1008.98 1008.82 1009.34 1008.78 1008.35 1008.55 1008.55 1008.41 1008.15 1008.02 1007.87 1008.56 1009.92 1010.27 1011.01 1010.57 1008.41 1005.02 1000.39 999.89 999.19 999.27 999.18 999.32 999.61 999.41
1001.82 1002.24 1002.73 1003.28 1003.91 1004.57 1005.25 1006.06 1006.62 1006.73 1006.51 1006.07 1006.39 1005.79 1006.53 1008.47 1008.53 1008.44 1008.61 1008.24 1008.40 1008.06 1008.79 1009.23 1009.12 1008.83 1008.78 1008.49 1008.37 1008.65 1009.17 1010.22 1011.27 1010.57 1008.75 1005.13 1001.11 1000.04 999.60 999.18 998.84 998.75 998.84 998.84
1000.27 1000.71 1001.32 1001.99 1002.68 1003.49 1004.53 1005.06 1005.90 1006.66 1006.21 1004.89 1004.90 1005.85 1006.25 1006.82 1007.46 1008.55 1007.07 1007.80 1007.71 1008.37 1008.96 1009.21 1009.08 1009.02 1008.43 1008.66 1008.87 1009.22 1009.82 1009.91 1010.20 1010.36 1009.49 1006.93 1003.16 1000.22 999.10 999.36 998.80 998.16 997.96 998.25
998.44 998.96 999.65 1000.45 1001.37 1002.29 1003.48 1003.89 1004.91 1006.16 1006.35 1004.99 1004.71 1004.23 1004.34 1005.78 1006.35 1006.52 1007.01 1007.07 1007.65 1007.92 1008.59 1009.57 1009.56 1008.99 1008.34 1008.31 1008.57 1009.40 1010.05 1010.32 1009.75 1009.10 1008.64 1006.49 1003.83 1001.76 999.16 1000.14 1000.25 999.40 998.31 997.79
996.53 997.02 997.83 998.81 999.83 1000.99 1002.33 1003.07 1004.12 1004.64 1005.39 1004.79 1004.28 1003.64 1003.27 1004.28 1004.82 1005.09 1005.29 1006.84 1006.61 1007.48 1008.33 1008.99 1008.87 1008.76 1008.09 1007.75 1007.30 1007.53 1008.28 1009.03 1008.94 1008.34 1007.52 1005.30 1003.09 1001.34 1000.79 1001.38 1000.52 1000.12 999.07 997.69
994.59 995.20 996.02 997.05 998.29 999.51 1001.26 1002.20 1003.30 1004.12 1004.74 1004.53 1004.12 1003.43 1002.93 1002.93 1002.96 1003.84 1004.55 1004.42 1005.00 1005.84 1007.25 1007.94 1007.85 1008.24 1008.23 1007.34 1007.06 1006.36 1006.90 1006.13 1006.40 1006.17 1004.17 1002.21 1001.99 1002.48 1002.16 1001.76 1001.16 1000.53 999.85 998.51
992.77 993.30 994.18 995.44 996.85 998.33 999.97 1001.06 1002.48 1003.60 1003.80 1004.66 1004.36 1003.18 1002.22 1002.29 1002.86 1002.51 1003.37 1003.76 1003.90 1004.81 1005.18 1006.61 1006.85 1007.01 1007.23 1007.20 1006.33 1005.83 1005.26 1004.93 1005.04 1004.93 1003.12 1002.37 1001.50 1001.05 1001.40 1001.36 1000.63 999.95 999.29 998.73
990.69 991.72 992.84 994.27 995.76 997.32 999.11 1000.21 1001.16 1002.33 1003.50 1004.04 1002.85 1002.53 1002.11 1001.37 1001.81 1002.32 1002.27 1002.85 1003.34 1004.12 1005.09 1006.02 1006.26 1006.12 1005.35 1005.88 1005.55 1005.59 1004.69 1004.61 1004.26 1003.86 1002.30 1001.59 1001.09 1000.08 1000.21 1000.26 999.77 999.59 999.36 998.71
990.13 991.40 992.57 993.92 995.27 996.77 998.60 1000.13 1000.79 1001.24 1001.94 1002.37 1002.55 1002.03 1001.46 1001.22 1001.40 1001.98 1002.27 1002.59 1003.20 1004.04 1005.30 1005.41 1005.60 1005.05 1004.98 1005.19 1005.36 1005.50 1005.29 1004.76 1004.38 1002.90 1001.46 1000.85 1000.14 999.44 998.89 999.03 999.23 999.29 999.14 998.65
990.65 991.36 992.39 993.78 995.44 997.15 998.68 1000.02 1001.31 1001.02 1000.88 1001.12 1001.95 1001.35 1001.17 1001.03 1001.43 1001.94 1002.23 1002.37 1003.06 1003.65 1005.16 1004.88 1004.27 1003.69 1004.18 1005.39 1005.71 1006.15 1006.53 1006.19 1005.07 1004.27 1002.66 1001.29 1000.63 1000.25 999.88 999.33 999.08 998.98 998.94 998.88
991.81 992.22 993.20 994.37 995.96 997.14 998.09 998.54 998.65 1000.32 1001.21 1001.26 1001.62 1001.55 1001.42 1001.48 1001.62 1002.01 1002.41 1002.64 1003.06 1003.81 1004.42 1004.58 1004.23 1004.05 1003.98 1005.41 1006.67 1007.19 1007.10 1006.71 1005.34 1004.56 1003.00 1002.26 1002.11 1001.79 1000.98 1000.39 1000.27 1000.04 999.42 999.84
993.46 994.11 995.05 995.92 996.74 997.65 998.06 998.03 998.57 1000.00 1001.11 1000.81 1001.46 1002.19 1002.18 1002.13 1002.11 1002.63 1002.44 1002.75 1002.61 1003.42 1004.03 1004.38 1004.48 1004.39 1005.32 1007.27 1008.51 1008.00 1008.36 1007.24 1006.32 1005.60 1005.14 1004.81 1004.08 1003.38 1002.85 1002.01 1001.61 1001.66 1001.89 1001.94
995.05 995.62 996.19 997.11 997.52 997.87 998.43 998.54 999.37 1000.32 1000.82 1000.91 1001.85 1002.69 1002.98 1002.75 1002.79 1002.57 1002.69 1002.67 1003.59 1003.58 1004.13 1004.60 1005.21 1006.73 1008.44 1009.84 1009.69 1009.17 1009.03 1008.69 1008.10 1006.92 1006.33 1006.19 1005.64 1005.69 1004.73 1004.02 1004.17 1004.44 1004.78 1004.63
996.22 996.58 997.13 997.75 998.24 998.52 998.44 999.23 999.93 1000.29 1000.31 1001.05 1002.29 1002.96 1003.18 1003.15 1003.13 1003.37 1003.52 1003.61 1003.85 1004.23 1004.37 1004.71 1006.51 1009.17 1010.70 1011.17 1010.93 1010.70 1010.26 1009.54 1008.92 1007.95 1007.65 1007.39 1006.92 1006.83 1007.02 1007.33 1007.55 1007.42 1007.60 1007.87
996.43 996.94 998.06 998.58 998.32 998.32 998.96 1000.05 1000.48 1000.94 1001.51 1001.86 1002.39 1002.64 1003.02 1003.30 1003.29 1003.55 1003.57 1003.80 1003.74 1003.93 1004.32 1005.27 1008.32 1010.70 1011.53 1012.02 1011.98 1011.71 1011.14 1010.55 1010.15 1009.92 1009.84 1009.35 1008.84 1008.81 1008.99 1009.45 1009.71 1009.66 1009.69 1009.96
997.28 997.69 998.79 999.03 999.36 999.78 1000.54 1001.64 1001.66 1001.87 1002.49 1002.70 1002.69 1002.80 1002.85 1003.25 1003.25 1003.61 1003.85 1003.86 1004.17 1004.49 1005.19 1007.20 1010.52 1012.65 1013.01 1013.04 1013.26 1013.14 1012.44 1011.92 1011.52 1011.23 1011.18 1010.97 1010.83 1010.86 1010.86 1011.13 1011.30 1011.69 1011.83 1011.93
997.71 998.57 1000.13 1000.82 1001.91 1002.70 1003.28 1003.56 1003.35 1003.31 1003.51 1003.61 1003.04 1003.02 1003.26 1003.50 1003.56 1003.61 1003.89 1004.27 1005.07 1005.48 1007.85 1011.03 1013.29 1013.97 1014.15 1014.26 1014.16 1013.83 1013.61 1013.28 1012.71 1012.93 1012.86 1012.93 1012.84 1012.80 1012.65 1012.89 1013.32 1013.26 1013.34 1013.74
1000.13 1001.41 1003.28 1004.11 1005.28 1005.70 1005.90 1005.55 1005.05 1004.71 1004.43 1004.06 1003.70 1003.45 1003.62 1003.86 1003.86 1004.07 1004.65 1006.15 1006.69 1008.76 1011.19 1013.56 1014.74 1015.11 1015.28 1015.35 1015.37 1015.15 1015.04 1014.41 1014.55 1014.84 1014.86 1014.68 1014.39 1014.16 1014.60 1014.78 1014.83 1014.73 1015.03 1015.67
1003.31 1004.48 1006.63 1007.53 1007.86 1007.55 1006.89 1006.28 1005.65 1005.25 1004.82 1004.38 1004.09 1004.09 1004.22 1004.74 1005.00 1005.86 1006.41 1008.36 1010.54 1012.32 1013.99 1015.23 1015.86 1016.13 1016.31 1016.40 1016.35 1016.17 1015.97 1016.11 1016.43 1016.47 1016.30 1016.22 1016.37 1016.49 1016.62 1016.73 1016.64 1016.60 1016.85 1017.19
1006.25 1007.91 1008.83 1008.97 1008.76 1008.32 1007.43 1006.96 1006.20 1005.72 1005.21 1004.65 1004.55 1004.83 1005.73 1006.99 1007.86 1008.63 1010.18 1011.45 1013.53 1015.17 1015.97 1016.74 1017.15 1017.38 1017.38 1017.43 1017.50 1017.55 1017.47 1017.53 1017.81 1018.13 1018.21 1018.14 1018.13 1018.24 1018.39 1018.40 1018.45 1018.57 1018.60 1018.88
1008.75 1010.29 1010.33 1010.21 1009.77 1009.44 1008.63 1007.82 1007.21 1006.40 1005.65 1005.72 1006.35 1007.26 1008.35 1009.17 1010.24 1012.29 1013.68 1014.95 1015.96 1016.72 1017.42 1017.96 1018.37 1018.65 1018.82 1019.09 1019.16 1019.13 1019.08 1019.35 1019.67 1019.68 1019.62 1019.64 1019.68 1019.62 1019.64 1019.80 1020.32 1020.28 1020.46 1020.60
Thickness
5398 5402 5405 5408 5412 5414 5414 5420 5424 5429 5425 5420 5437 5464 5481 5491 5491 5497 5501 5513 5526 5530 5535 5541 5554 5570 5579 5588 5594 5591 5593 5602 5599 5622 5644 5648 5647 5647 5643 5614 5612 5608 5598 5628
5397 5402 5405 5409 5412 5413 5416 5418 5420 5421 5429 5435 5452 5462 5466 5468 5478 5488 5498 5510 5520 5532 5529 5530 5547 5559 5573 5578 5576 5565 5574 5579 5579 5602 5622 5638 5627 5640 5648 5638 5620 5608 5594 5618
5399 5403 5407 5411 5413 5414 5409 5411 5415 5423 5431 5456 5456 5446 5456 5462 5474 5475 5483 5498 5509 5518 5521 5529 5541 5555 5570 5572 5564 5564 5570 5566 5576 5581 5602 5620 5624 5635 5644 5640 5603 5611 5611 5634
5401 5405 5409 5413 5415 5414 5404 5409 5420 5439 5452 5448 5451 5457 5466 5467 5471 5478 5487 5492 5496 5503 5512 5525 5535 5542 5548 5561 5559 5563 5562 5549 5556 5579 5596 5610 5625 5630 5634 5635 5632 5615 5629 5629
5405 5409 5411 5414 5415 5412 5406 5407 5424 5433 5445 5448 5443 5452 5477 5478 5471 5479 5484 5487 5504 5506 5509 5510 5517 5526 5532 5540 5544 5539 5537 5542 5540 5563 5592 5603 5606 5626 5632 5640 5636 5632 5635 5635
5408 5411 5413 5415 5415 5408 5413 5418 5418 5432 5443 5440 5440 5481 5501 5470 5461 5480 5485 5493 5493 5498 5505 5512 5520 5524 5528 5535 5532 5521 5530 5521 5525 5542 5563 5583 5579 5628 5629 5632 5638 5639 5622 5641
5409 5411 5412 5412 5413 5410 5412 5415 5417 5417 5435 5436 5479 5470 5456 5462 5469 5464 5483 5487 5477 5497 5506 5507 5512 5517 5522 5526 5534 5528 5513 5514 5502 5513 5537 5547 5617 5627 5634 5628 5634 5639 5638 5647
5406 5407 5407 5407 5406 5405 5404 5405 5407 5414 5423 5442 5450 5467 5469 5451 5460 5468 5470 5481 5484 5491 5489 5486 5495 5485 5506 5508 5518 5519 5520 5506 5498 5510 5523 5558 5601 5617 5621 5613 5620 5637 5638 5648
5401 5402 5401 5399 5398 5397 5394 5397 5398 5397 5412 5435 5459 5448 5451 5450 5450 5446 5474 5475 5478 5477 5474 5472 5481 5475 5509 5507 5507 5509 5499 5503 5506 5495 5502 5523 5572 5611 5629 5625 5599 5639 5647 5644
5396 5395 5394 5392 5389 5386 5384 5389 5389 5385 5386 5420 5432 5443 5453 5451 5448 5453 5456 5466 5464 5471 5454 5459 5467 5479 5505 5501 5493 5491 5480 5477 5498 5498 5498 5526 5560 5579 5617 5586 5599 5615 5634 5638
5390 5390 5388 5385 5383 5380 5374 5380 5378 5383 5383 5404 5418 5439 5446 5444 5446 5449 5462 5450 5456 5454 5453 5452 5458 5456 5487 5497 5512 5498 5494 5485 5486 5497 5500 5524 5561 5577 5579 5576 5591 5600 5614 5635
5388 5388 5387 5384 5380 5377 5370 5370 5375 5378 5379 5396 5408 5423 5438 5445 5456 5454 5450 5465 5467 5465 5452 5448 5456 5459 5449 5484 5481 5517 5503 5519 5508 5514 5531 5560 5563 5561 5566 5572 5581 5590 5599 5616
5385 5386 5385 5382 5379 5374 5368 5370 5371 5371 5380 5382 5394 5418 5438 5443 5445 5459 5450 5456 5468 5461 5466 5456 5464 5473 5462 5462 5490 5516 5521 5523 5521 5522 5545 5551 5562 5567 5567 5571 5580 5592 5601 5609
5385 5382 5380 5377 5374 5372 5367 5368 5376 5375 5375 5379 5404 5414 5427 5446 5447 5449 5457 5461 5463 5461 5455 5458 5459 5457 5490 5472 5504 5490 5514 5519 5526 5527 5546 5551 5558 5569 5570 5574 5582 5587 5594 5602
5375 5369 5369 5369 5369 5370 5367 5369 5375 5380 5385 5387 5401 5414 5428 5442 5447 5448 5451 5456 5459 5453 5448 5443 5457 5472 5483 5484 5492 5493 5501 5511 5512 5518 5543 5550 5560 5570 5577 5581 5581 5585 5588 5594
5373 5370 5366 5366 5365 5363 5364 5366 5366 5381 5393 5405 5397 5416 5430 5438 5441 5445 5447 5453 5452 5453 5445 5445 5467 5487 5488 5468 5481 5481 5475 5480 5496 5509 5530 5544 5552 5559 5565 5573 5578 5583 5584 5586
5373 5375 5372 5371 5369 5372 5373 5381 5397 5391 5390 5404 5405 5413 5423 5428 5436 5437 5442 5444 5442 5443 5448 5454 5464 5477 5486 5450 5459 5461 5466 5468 5491 5500 5523 5533 5534 5538 5549 5558 5561 5566 5573 5570
5372 5372 5370 5371 5374 5377 5382 5395 5399 5396 5395 5408 5406 5407 5416 5419 5422 5428 5436 5437 5445 5448 5448 5451 5459 5469 5463 5447 5433 5445 5448 5462 5476 5482 5493 5499 5511 5517 5521 5533 5540 5538 5534 5536
5374 5374 5375 5376 5381 5388 5390 5399 5400 5399 5405 5400 5394 5397 5416 5413 5416 5426 5432 5438 5430 5443 5441 5444 5453 5431 5415 5412 5421 5433 5436 5444 5455 5471 5476 5481 5485 5485 5496 5505 5504 5502 5498 5502
5378 5382 5382 5380 5384 5390 5398 5398 5400 5405 5410 5407 5397 5397 5404 5415 5411 5414 5417 5411 5424 5432 5436 5446 5428 5406 5398 5399 5407 5412 5420 5433 5441 5456 5461 5465 5473 5471 5469 5467 5465 5468 5466 5464
5388 5387 5384 5385 5393 5399 5399 5392 5396 5402 5400 5401 5401 5399 5411 5409 5406 5420 5407 5413 5418 5435 5440 5439 5408 5392 5390 5391 5394 5399 5410 5419 5424 5429 5432 5441 5448 5449 5447 5442 5439 5441 5441 5440
5391 5392 5388 5390 5394 5392 5395 5385 5392 5398 5405 5398 5397 5403 5410 5407 5412 5417 5418 5423 5429 5433 5429 5416 5387 5371 5374 5379 5380 5383 5392 5399 5403 5410 5413 5417 5421 5421 5423 5421 5420 5417 5416 5418
5398 5395 5389 5390 5376 5366 5371 5399 5398 5399 5391 5392 5401 5411 5404 5406 5410 5416 5420 5439 5431 5424 5404 5368 5359 5360 5365 5368 5371 5374 5379 5385 5392 5391 5394 5395 5396 5398 5402 5400 5396 5398 5397 5393
5382 5376 5356 5353 5346 5354 5354 5362 5371 5378 5383 5387 5394 5406 5408 5404 5415 5419 5426 5405 5407 5393 5371 5353 5347 5351 5354 5358 5360 5363 5363 5369 5370 5370 5372 5374 5378 5381 5377 5375 5375 5375 5372 5366
5360 5356 5338 5333 5339 5341 5347 5357 5369 5377 5382 5387 5399 5402 5405 5405 5406 5396 5405 5384 5363 5356 5345 5342 5341 5344 5345 5346 5348 5350 5352 5351 5349 5351 5353 5355 5354 5353 5352 5351 5351 5351 5348 5345
5339 5331 5323 5325 5326 5337 5345 5359 5372 5376 5382 5391 5397 5404 5399 5381 5378 5376 5368 5367 5347 5338 5334 5329 5329 5329 5331 5333 5334 5334 5335 5336 5335 5333 5332 5333 5332 5331 5329 5328 5327 5325 5324 5320
5319 5310 5306 5313 5317 5334 5350 5361 5366 5373 5389 5394 5387 5375 5374 5374 5370 5349 5337 5329 5324 5318 5314 5314 5316 5317 5317 5316 5316 5317 5318 5316 5313 5314 5315 5314 5313 5313 5311 5308 5302 5301 5297 5294